{"data":{"norad_id":48378,"epoch":"2026-09-19T22:01:15.193344Z","epoch_age_seconds":83966,"freshness":"FRESH","line1":"1 48378U 21038AB  26262.91753696 -.00002225  00000+0 -59936-4 0  9996","line2":"2 48378  53.1583 164.1179 0000962 102.4146 257.6963 15.31713439296980","mean_motion":15.31713439,"eccentricity":9.62e-5,"inclination_deg":53.1583,"raan_deg":164.1179,"arg_perigee_deg":102.4146,"mean_anomaly_deg":257.6963,"bstar":-5.9936e-5,"rev_number":29698,"period_min":94.01236310495,"perigee_km":470.04107644576,"apogee_km":471.35879267197,"semimajor_km":6848.8369345589,"source":"CELESTRAK","updated_at":"2026-09-20T09:00:38.943517Z"}}